Location: New Frontier Mobile Home Park
(32.8448°N, 116.9675°W)
Time: 22:56:07
(UTC+00:00)

Cosmos 1536 - Pass Details

Date: 14 July 2020
Orbit: 539 x 559 km, 82.5° (Epoch: 05 August)

Event Time Altitude Azimuth Distance (km) Brightness Sun altitude
Exits shadow 10:01:40 41° 11° (N) 812 4.0 -27.6°
Drops below altitude 10° 10:04:23 10° 8° (N) 1,844 6.3 -27.3°
Sets 10:06:33 0° 7° (N) 2,740 7.3 -27.0°
